Location: Newark
(49.5647°N, 8.2922°E)
Time: 08:55:24
(UTC+00:00)

Transit 2A - Pass Details

Date: 19 February 2020
Orbit: 597 x 962 km, 66.7° (Epoch: 08 April)

Event Time Altitude Azimuth Distance (km) Brightness Sun altitude
Rises 13:55:26 0° 221° (SW) 2,830 10.4 22.3°
Reaches altitude 10° 13:57:39 10° 224° (SW) 1,928 10.2 22.1°
Maximum altitude 14:01:56 71° 308° (NW) 643 6.0 21.7°
Drops below altitude 10° 14:06:24 10° 33° (NNE) 2,006 7.7 21.2°
Sets 14:08:45 0° 36° (NE) 2,957 8.4 21.0°
